Flag for Germany Weather past 2 weeks in Deggendorf, Bavaria, Germany

Now
38 °F

Overcast.


Feels Like: 32 °F
Forecast: 34 / 42 °F
Wind: 8 mph from West

Location: Straubing

Current Time: Dec 21, 2014 at 8:19:56 AM

Latest Report: Dec 21, 2014 at 7:00 AM


Visibility: 19 mi

Pressure: 30.46 "Hg

Humidity: 85%

Dew point: 34 °F

Location of DeggendorfLocation

Historic Weather in Deggendorf — Graph

°F

Deggendorf temperature yesterday

Maximum temperature yesterday: 46 °F (at 12:00 AM)
Minimum temperature yesterday: 39 °F (at 6:00 AM)
Average temperature yesterday: 41 °F

Past Weeks' High & Low Weather Summary

 TemperatureHumidityPressure
High55 °F (Dec 19, 1:00 PM)100% (Dec 8, 11:00 PM)30.51 "Hg (Dec 8, 11:00 PM)
Low29 °F (Dec 10, 9:00 AM)57% (Dec 12, 2:00 PM)29.82 "Hg (Dec 12, 8:00 PM)
Average40 °F88%30.11 "Hg
* Reported Dec 6 7:00 AM — Dec 21 7:00 AM, Deggendorf, Weather by CustomWeather, © 2014

Note: Actual official high and low records may vary slightly from our data, if they occured in-between our weather recording intervals... More about our weather records

Advertising

Deggendorf weather history for previous 24 hours

 ConditionsComfort  
Time TempWeatherWind HumidityBarometerVisibility
7:00 AM
Dec 21
38 °FOvercast.8 mph85%30.46 "Hg19 mi
6:00 AM38 °FOvercast.7 mph85%30.44 "Hg28 mi
5:00 AM38 °FOvercast.6 mph83%30.42 "Hg31 mi
3:00 AM37 °FOvercast.6 mph90%30.36 "Hg37 mi
2:00 AM37 °FOvercast.6 mph90%30.33 "Hg43 mi
1:00 AM34 °FPassing clouds.5 mph96%30.32 "Hg43 mi
12:00 AM36 °FRain. Low clouds.9 mph92%30.31 "Hg1 mi
11:00 PM
Dec 20
40 °FOvercast.9 mph81%30.25 "Hg43 mi
9:00 PM39 °FOvercast.8 mph83%30.23 "Hg43 mi
8:00 PM39 °FOvercast.8 mph85%30.22 "Hg37 mi
7:00 PM41 °FLight rain. Haze.12 mph74%30.17 "Hg22 mi
6:00 PM42 °FOvercast.9 mph66%30.16 "Hg43 mi
5:00 PM42 °FOvercast.8 mph67%30.16 "Hg43 mi
4:00 PM41 °FOvercast.7 mph69%30.18 "Hg43 mi
3:00 PM42 °FOvercast.7 mph67%30.20 "Hg43 mi
2:00 PM41 °FOvercast.7 mph69%30.22 "Hg43 mi
1:00 PM41 °FOvercast.8 mph71%30.22 "Hg43 mi
12:00 PM42 °FScattered clouds.6 mph72%30.24 "Hg34 mi
11:00 AM42 °FPartly sunny.6 mph77%30.27 "Hg31 mi
9:00 AM39 °FSunny.3 mph79%30.28 "Hg31 mi
8:00 AM39 °FSunny.5 mph84%30.28 "Hg25 mi
Weather by CustomWeather, © 2014

See weather overviewHow to use our weather pages